RYR157 LPPT-LEMD

Flight info

Callsign RYR157
Flight time 0h 55m
Altitude 30000
Route ORVED DCT OGERO DCT ROLDO DCT RUKER Z409 TLD
Aircraft B738/M-SDE2E3FGHIRWXY/LB1

Departure

Time 2026-05-06 19:08
Airport Lisbon Humberto Delgado Airport (LPPT)

Arrival

Time 2026-05-06 20:04
Airport Adolfo Suárez Madrid–Barajas Airport (LEMD)
Time Latitude Longitude Altitude Speed Heading
2026-05-06 18:47 38.76448 -9.13832 347 ft 0 kts 168°
2026-05-06 19:00 38.76458 -9.13835 347 ft 4 kts 168°
2026-05-06 19:01 38.76493 -9.13843 347 ft 4 kts 183°
2026-05-06 19:01 38.76517 -9.13834 347 ft 4 kts 224°
2026-05-06 19:01 38.76527 -9.13815 351 ft 0 kts 258°
2026-05-06 19:04 38.76527 -9.13816 351 ft 0 kts 258°
2026-05-06 19:04 38.76524 -9.13832 347 ft 4 kts 258°
2026-05-06 19:05 38.76518 -9.13869 347 ft 8 kts 258°
2026-05-06 19:05 38.76545 -9.13930 346 ft 10 kts 346°
2026-05-06 19:05 38.76570 -9.14003 352 ft 11 kts 238°
2026-05-06 19:05 38.76516 -9.14076 346 ft 11 kts 233°
2026-05-06 19:06 38.76498 -9.14177 350 ft 13 kts 279°
2026-05-06 19:06 38.76527 -9.14272 338 ft 9 kts 292°
2026-05-06 19:06 38.76536 -9.14300 335 ft 0 kts 292°
2026-05-06 19:07 38.76537 -9.14302 335 ft 1 kts 292°
2026-05-06 19:07 38.76550 -9.14342 333 ft 9 kts 292°
2026-05-06 19:07 38.76603 -9.14400 335 ft 11 kts 355°
2026-05-06 19:08 38.76700 -9.14358 334 ft 34 kts 22°
2026-05-06 19:08 38.77186 -9.14099 358 ft 114 kts 22°
2026-05-06 19:08 38.78094 -9.13592 545 ft 160 kts 22°
2026-05-06 19:08 38.79069 -9.12978 1533 ft 143 kts 21°
2026-05-06 19:09 38.79886 -9.12370 2651 ft 135 kts 24°
2026-05-06 19:09 38.80805 -9.11814 3149 ft 165 kts 17°
2026-05-06 19:09 38.81987 -9.11226 3517 ft 195 kts 20°
2026-05-06 19:09 38.83275 -9.10456 3884 ft 219 kts 24°
2026-05-06 19:10 38.84603 -9.09253 4155 ft 255 kts 47°
2026-05-06 19:10 38.85515 -9.07203 4908 ft 269 kts 64°
2026-05-06 19:10 38.86312 -9.05032 5959 ft 269 kts 65°
2026-05-06 19:10 38.87108 -9.02836 6961 ft 273 kts 65°
2026-05-06 19:11 38.87922 -9.00605 7890 ft 280 kts 65°
2026-05-06 19:11 38.88763 -8.98323 8882 ft 285 kts 64°
2026-05-06 19:11 38.89621 -8.96015 9868 ft 292 kts 64°
2026-05-06 19:11 38.90515 -8.93627 10665 ft 304 kts 64°
2026-05-06 19:12 38.91464 -8.91102 11292 ft 322 kts 64°
2026-05-06 19:12 38.92460 -8.88460 12118 ft 332 kts 64°
2026-05-06 19:12 38.93476 -8.85770 13185 ft 336 kts 64°
2026-05-06 19:12 38.94494 -8.83078 14135 ft 344 kts 64°
2026-05-06 19:13 38.95550 -8.80286 15076 ft 349 kts 64°
2026-05-06 19:13 38.96620 -8.77456 16036 ft 355 kts 65°
2026-05-06 19:13 38.97712 -8.74566 16996 ft 362 kts 65°
2026-05-06 19:13 38.98814 -8.71646 18065 ft 363 kts 65°
2026-05-06 19:14 38.99923 -8.68705 18920 ft 369 kts 65°
2026-05-06 19:14 39.01052 -8.65711 19824 ft 372 kts 65°
2026-05-06 19:14 39.02188 -8.62695 20653 ft 378 kts 65°
2026-05-06 19:14 39.03341 -8.59632 21513 ft 382 kts 65°
2026-05-06 19:15 39.04508 -8.56528 22253 ft 391 kts 65°
2026-05-06 19:15 39.05701 -8.53352 23065 ft 395 kts 65°
2026-05-06 19:15 39.06898 -8.50159 23845 ft 399 kts 65°
2026-05-06 19:15 39.08112 -8.46921 24432 ft 405 kts 65°
2026-05-06 19:16 39.09345 -8.43627 25082 ft 410 kts 65°
2026-05-06 19:16 39.10573 -8.40341 25695 ft 415 kts 65°
2026-05-06 19:16 39.11833 -8.36969 26281 ft 421 kts 65°
2026-05-06 19:16 39.13126 -8.33502 26851 ft 427 kts 65°
2026-05-06 19:17 39.14400 -8.30082 27420 ft 432 kts 65°
2026-05-06 19:17 39.15708 -8.26569 27996 ft 437 kts 65°
2026-05-06 19:17 39.17029 -8.23014 28551 ft 442 kts 65°
2026-05-06 19:17 39.18365 -8.19417 29088 ft 447 kts 65°
2026-05-06 19:18 39.19704 -8.15806 29621 ft 452 kts 66°
2026-05-06 19:18 39.21054 -8.12162 29921 ft 458 kts 66°
2026-05-06 19:18 39.22435 -8.08429 29903 ft 461 kts 66°
2026-05-06 19:19 39.25150 -8.01081 29884 ft 448 kts 66°
2026-05-06 19:19 39.27820 -7.93832 29882 ft 435 kts 66°
2026-05-06 19:19 39.29092 -7.90376 29873 ft 420 kts 66°
2026-05-06 19:20 39.30322 -7.87031 29872 ft 405 kts 66°
2026-05-06 19:20 39.31509 -7.83794 29866 ft 393 kts 66°
2026-05-06 19:20 39.32663 -7.80646 29886 ft 384 kts 66°
2026-05-06 19:21 39.34987 -7.74279 29911 ft 401 kts 66°
2026-05-06 19:21 39.37370 -7.67755 29882 ft 398 kts 66°
2026-05-06 19:22 39.39685 -7.61275 29878 ft 395 kts 68°
2026-05-06 19:22 39.41873 -7.54833 29872 ft 393 kts 68°
2026-05-06 19:23 39.44063 -7.48352 29884 ft 394 kts 68°
2026-05-06 19:23 39.46270 -7.41837 29875 ft 396 kts 68°
2026-05-06 19:24 39.48482 -7.35309 29872 ft 398 kts 68°
2026-05-06 19:24 39.50715 -7.28710 29867 ft 400 kts 68°
2026-05-06 19:25 39.52946 -7.22103 29864 ft 400 kts 68°
2026-05-06 19:25 39.55168 -7.15506 29866 ft 400 kts 68°
2026-05-06 19:25 39.56298 -7.12145 29938 ft 411 kts 68°
2026-05-06 19:26 39.57445 -7.08726 30418 ft 415 kts 68°
2026-05-06 19:26 39.58578 -7.05348 31073 ft 414 kts 68°
2026-05-06 19:26 39.59724 -7.01929 31708 ft 413 kts 68°
2026-05-06 19:26 39.60869 -6.98508 31845 ft 415 kts 68°
2026-05-06 19:27 39.62015 -6.95082 31846 ft 414 kts 68°
2026-05-06 19:27 39.64287 -6.88272 31859 ft 410 kts 68°
2026-05-06 19:28 39.66545 -6.81488 31849 ft 410 kts 68°
2026-05-06 19:28 39.68808 -6.74671 31859 ft 411 kts 68°
2026-05-06 19:29 39.71065 -6.67857 31856 ft 411 kts 68°
2026-05-06 19:29 39.73323 -6.61023 31860 ft 411 kts 68°
2026-05-06 19:30 39.75570 -6.54204 31859 ft 411 kts 68°
2026-05-06 19:30 39.77815 -6.47378 31860 ft 410 kts 68°
2026-05-06 19:31 39.79966 -6.40565 31855 ft 409 kts 74°
2026-05-06 19:31 39.81220 -6.29659 31854 ft 406 kts 86°
2026-05-06 19:32 39.81814 -6.22340 31855 ft 406 kts 86°
2026-05-06 19:32 39.82437 -6.15019 31858 ft 406 kts 86°
2026-05-06 19:33 39.83069 -6.07762 31855 ft 406 kts 85°
2026-05-06 19:33 39.83705 -6.00458 31868 ft 406 kts 85°
2026-05-06 19:34 39.84337 -5.93159 31865 ft 406 kts 85°
2026-05-06 19:34 39.84964 -5.85857 31865 ft 406 kts 85°
2026-05-06 19:35 39.85587 -5.78537 31860 ft 406 kts 85°
2026-05-06 19:35 39.86200 -5.71274 31868 ft 406 kts 85°
2026-05-06 19:36 39.86813 -5.63966 31861 ft 406 kts 85°
2026-05-06 19:36 39.87421 -5.56669 31868 ft 405 kts 85°
2026-05-06 19:37 39.88022 -5.49369 31858 ft 405 kts 85°
2026-05-06 19:37 39.88517 -5.43299 31877 ft 405 kts 85°
2026-05-06 19:38 39.89206 -5.34763 31878 ft 405 kts 85°
2026-05-06 19:38 39.89792 -5.27455 31506 ft 406 kts 85°
2026-05-06 19:39 39.90082 -5.23817 31097 ft 404 kts 85°
2026-05-06 19:39 39.90371 -5.20181 30667 ft 403 kts 86°
2026-05-06 19:39 39.90656 -5.16582 30228 ft 404 kts 86°
2026-05-06 19:39 39.90942 -5.12946 29730 ft 404 kts 86°
2026-05-06 19:40 39.91228 -5.09308 29264 ft 402 kts 86°
2026-05-06 19:40 39.91508 -5.05721 28992 ft 395 kts 86°
2026-05-06 19:40 39.91785 -5.02176 28714 ft 395 kts 86°
2026-05-06 19:40 39.92062 -4.98588 28273 ft 399 kts 86°
2026-05-06 19:41 39.92339 -4.94997 27750 ft 398 kts 86°
2026-05-06 19:41 39.92614 -4.91417 27309 ft 395 kts 86°
2026-05-06 19:41 39.92885 -4.87872 26883 ft 393 kts 86°
2026-05-06 19:41 39.93155 -4.84340 26439 ft 390 kts 86°
2026-05-06 19:42 39.93407 -4.81024 26027 ft 388 kts 86°
2026-05-06 19:42 39.93671 -4.77537 25589 ft 386 kts 86°
2026-05-06 19:42 39.93929 -4.74106 25157 ft 384 kts 86°
2026-05-06 19:42 39.94192 -4.70603 24701 ft 383 kts 86°
2026-05-06 19:43 39.94449 -4.67177 24268 ft 377 kts 86°
2026-05-06 19:43 39.94698 -4.63833 23827 ft 376 kts 86°
2026-05-06 19:43 39.94950 -4.60441 23369 ft 376 kts 86°
2026-05-06 19:43 39.95201 -4.57040 22752 ft 378 kts 86°
2026-05-06 19:44 39.95451 -4.53640 22282 ft 375 kts 86°
2026-05-06 19:44 39.95695 -4.50313 21858 ft 372 kts 86°
2026-05-06 19:44 39.95940 -4.46967 21434 ft 369 kts 86°
2026-05-06 19:44 39.96182 -4.43652 21020 ft 366 kts 86°
2026-05-06 19:45 39.96420 -4.40370 20619 ft 363 kts 86°
2026-05-06 19:45 39.96652 -4.37105 20220 ft 360 kts 88°
2026-05-06 19:45 39.96407 -4.33911 19803 ft 353 kts 110°
2026-05-06 19:45 39.95346 -4.31083 19416 ft 345 kts 129°
2026-05-06 19:46 39.93875 -4.28644 19034 ft 340 kts 133°
2026-05-06 19:46 39.92364 -4.26284 18647 ft 339 kts 133°
2026-05-06 19:46 39.90851 -4.23930 18256 ft 337 kts 133°
2026-05-06 19:46 39.89358 -4.21584 17819 ft 336 kts 133°
2026-05-06 19:47 39.87883 -4.19241 17388 ft 334 kts 132°
2026-05-06 19:47 39.86420 -4.16904 16989 ft 331 kts 132°
2026-05-06 19:47 39.84972 -4.14589 16594 ft 329 kts 132°
2026-05-06 19:47 39.83663 -4.12207 16192 ft 330 kts 118°
2026-05-06 19:48 39.83031 -4.09339 15858 ft 329 kts 102°
2026-05-06 19:48 39.82674 -4.06399 15474 ft 328 kts 100°
2026-05-06 19:48 39.82328 -4.03474 15088 ft 326 kts 101°
2026-05-06 19:48 39.81966 -4.00570 14717 ft 324 kts 101°
2026-05-06 19:49 39.81597 -3.97686 14350 ft 322 kts 101°
2026-05-06 19:49 39.81593 -3.94787 13952 ft 324 kts 77°
2026-05-06 19:49 39.82493 -3.92136 13689 ft 319 kts 54°
2026-05-06 19:49 39.83963 -3.90000 13401 ft 315 kts 45°
2026-05-06 19:50 39.85513 -3.87990 13103 ft 315 kts 44°
2026-05-06 19:50 39.87066 -3.85983 12824 ft 314 kts 45°
2026-05-06 19:50 39.88590 -3.83990 12608 ft 312 kts 45°
2026-05-06 19:50 39.90103 -3.81989 12362 ft 310 kts 45°
2026-05-06 19:51 39.91614 -3.79982 12092 ft 309 kts 45°
2026-05-06 19:51 39.92610 -3.78657 11929 ft 309 kts 45°
2026-05-06 19:51 39.94112 -3.76655 11662 ft 308 kts 46°
2026-05-06 19:51 39.96114 -3.73985 11311 ft 308 kts 46°
2026-05-06 19:52 39.97105 -3.72662 11142 ft 307 kts 46°
2026-05-06 19:52 39.98596 -3.70669 10875 ft 306 kts 45°
2026-05-06 19:52 40.00071 -3.68699 10610 ft 301 kts 45°
2026-05-06 19:52 40.01522 -3.66761 10352 ft 298 kts 46°
2026-05-06 19:53 40.02960 -3.64837 10105 ft 291 kts 46°
2026-05-06 19:53 40.04350 -3.62977 9849 ft 283 kts 46°
2026-05-06 19:53 40.05712 -3.61153 9596 ft 280 kts 46°
2026-05-06 19:53 40.07074 -3.59328 9353 ft 280 kts 46°
2026-05-06 19:54 40.08432 -3.57506 9103 ft 280 kts 46°
2026-05-06 19:54 40.09786 -3.55689 8861 ft 279 kts 46°
2026-05-06 19:54 40.11136 -3.53876 8620 ft 278 kts 46°
2026-05-06 19:54 40.12483 -3.52068 8381 ft 277 kts 46°
2026-05-06 19:55 40.13824 -3.50264 8147 ft 276 kts 46°
2026-05-06 19:55 40.15157 -3.48472 7914 ft 275 kts 46°
2026-05-06 19:55 40.16475 -3.46699 7663 ft 266 kts 46°
2026-05-06 19:55 40.17773 -3.45033 7442 ft 259 kts 43°
2026-05-06 19:56 40.19103 -3.43470 7225 ft 256 kts 42°
2026-05-06 19:56 40.20406 -3.41952 6987 ft 245 kts 42°
2026-05-06 19:56 40.21747 -3.40657 6775 ft 235 kts 29°
2026-05-06 19:56 40.23163 -3.39671 6592 ft 226 kts 28°
2026-05-06 19:57 40.24495 -3.38731 6425 ft 214 kts 28°
2026-05-06 19:57 40.25871 -3.38130 6218 ft 202 kts
2026-05-06 19:57 40.27219 -3.38061 6053 ft 193 kts
2026-05-06 19:57 40.28564 -3.37966 5900 ft 188 kts
2026-05-06 19:58 40.29827 -3.37872 5736 ft 181 kts
2026-05-06 19:58 40.31066 -3.37790 5568 ft 176 kts 359°
2026-05-06 19:58 40.32202 -3.38310 5411 ft 176 kts 324°
2026-05-06 19:58 40.33200 -3.39265 5295 ft 178 kts 324°
2026-05-06 19:59 40.34172 -3.40226 5150 ft 172 kts 322°
2026-05-06 19:59 40.35117 -3.41184 4925 ft 171 kts 322°
2026-05-06 19:59 40.36048 -3.42131 4700 ft 169 kts 322°
2026-05-06 19:59 40.36973 -3.43071 4477 ft 167 kts 323°
2026-05-06 20:00 40.37885 -3.43997 4257 ft 165 kts 322°
2026-05-06 20:00 40.38774 -3.44901 4044 ft 158 kts 322°
2026-05-06 20:00 40.39607 -3.45747 3884 ft 144 kts 323°
2026-05-06 20:00 40.40360 -3.46511 3648 ft 131 kts 322°
2026-05-06 20:01 40.41077 -3.47239 3504 ft 131 kts 322°
2026-05-06 20:01 40.41810 -3.47983 3325 ft 135 kts 322°
2026-05-06 20:01 40.42551 -3.48735 3105 ft 133 kts 322°
2026-05-06 20:01 40.43266 -3.49462 2957 ft 128 kts 322°
2026-05-06 20:02 40.43974 -3.50180 2810 ft 128 kts 322°
2026-05-06 20:02 40.44682 -3.50904 2633 ft 129 kts 323°
2026-05-06 20:02 40.45390 -3.51625 2456 ft 127 kts 323°
2026-05-06 20:02 40.46082 -3.52339 2265 ft 127 kts 322°
2026-05-06 20:03 40.46782 -3.53051 2082 ft 127 kts 323°
2026-05-06 20:03 40.47480 -3.53755 1919 ft 125 kts 322°
2026-05-06 20:03 40.48095 -3.54374 1931 ft 95 kts 322°
2026-05-06 20:03 40.48528 -3.54815 1940 ft 62 kts 322°
2026-05-06 20:04 40.48748 -3.55071 1949 ft 30 kts 298°
2026-05-06 20:04 40.48817 -3.55263 1952 ft 21 kts 293°
2026-05-06 20:04 40.48865 -3.55406 1951 ft 15 kts 306°
2026-05-06 20:04 40.48934 -3.55508 1952 ft 15 kts 322°
2026-05-06 20:05 40.49013 -3.55586 1953 ft 14 kts 322°
2026-05-06 20:05 40.49088 -3.55664 1956 ft 13 kts 322°
2026-05-06 20:05 40.49164 -3.55740 1958 ft 14 kts 322°
2026-05-06 20:05 40.49253 -3.55830 1959 ft 18 kts 322°
2026-05-06 20:06 40.49351 -3.55928 1959 ft 18 kts 322°
2026-05-06 20:06 40.49410 -3.56020 1959 ft 12 kts 281°
2026-05-06 20:06 40.49410 -3.56128 1958 ft 10 kts 270°
2026-05-06 20:06 40.49410 -3.56172 1959 ft 0 kts 270°
2026-05-06 20:07 40.49410 -3.56190 1959 ft 5 kts 267°
2026-05-06 20:07 40.49385 -3.56241 1961 ft 8 kts 214°
2026-05-06 20:08 40.49328 -3.56246 1961 ft 9 kts 180°
2026-05-06 20:08 40.49278 -3.56249 1960 ft 4 kts 195°
2026-05-06 20:08 40.49271 -3.56282 1962 ft 4 kts 274°
2026-05-06 20:08 40.49271 -3.56320 1963 ft 4 kts 270°
2026-05-06 20:09 40.49271 -3.56342 1963 ft 2 kts 269°
2026-05-06 20:09 40.49271 -3.56345 1963 ft 0 kts 269°
2026-05-06 20:09 40.49271 -3.56349 1963 ft 0 kts 269°